Columbus AFB, MS

9:19 AM CDT on May 24, 2017 (GMT -0500)
Columbus Air Force Base

Weather History for KCBM - December, 2013

Change the Weather History Date:

Tuesday, December 31, 2013

  Actual Average Record
Temperature  
Mean Temperature 38 °F -  
Max Temperature 43 °F 52 °F 93 °F (2016)
Min Temperature 32 °F 34 °F 26 °F (1998)
Degree Days  
Heating Degree Days 28    
Moisture  
Dew Point 30 °F    
Average Humidity 81    
Maximum Humidity 95    
Minimum Humidity 52    
Precipitation  
Precipitation 0.00 in - - ()
Sea Level Pressure  
Sea Level Pressure 30.42 in    
Wind  
Wind Speed 6 mph (NNW)    
Max Wind Speed 12 mph    
Max Gust Speed -    
Visibility 10 miles    
Events      
Averages and records for this station are not official NWS values.
T = Trace of Precipitation, MM = Missing Value Source: NWS Daily Summary

Daily Weather History Graph

Daily Weather History Graph

Search for Another Location

Airport or City:

Trip Planner

Search our weather history database for the weather conditions in past years. The results will help you decide how hot, cold, wet, or windy it might be!

Date:

Astronomy

Dec. 31, 2013 Rise Set
Actual Time 6:58 AM CST 4:55 PM CST
Civil Twilight 6:30 AM CST 5:23 PM CST
Nautical Twilight 5:59 AM CST 5:54 PM CST
Astronomical Twilight 5:29 AM CST 6:24 PM CST
Moon 5:52 AM CST (12/31) 4:29 PM CST (12/31)
Length of Visible Light 10h 52m
Length of Day
9h 57m
Waning Crescent, 1% of the Moon is Illuminated
Dec 31
Waning Crescent
Jan 1
New
Jan 7
First Quarter
Jan 15
Full
Jan 23
Last Quarter

Hourly Weather History & Observations

Time (CST) Temp. Windchill Dew Point Humidity Pressure Visibility Wind Dir Wind Speed Gust Speed Precip Events Conditions
12:03 AM 35.6 °F 30.7 °F 32.0 °F 87% 30.35 in 10.0 mi WNW 5.8 mph - N/A   Overcast
12:16 AM 35.6 °F 30.7 °F 32.0 °F 87% 30.35 in 10.0 mi WNW 5.8 mph - N/A   Overcast
12:21 AM 35.6 °F 30.7 °F 32.0 °F 87% 30.35 in 10.0 mi WNW 5.8 mph - N/A   Overcast
12:58 AM 35.6 °F 29.9 °F 31.6 °F 85% 30.37 in 10.0 mi WNW 6.9 mph - N/A   Overcast
1:43 AM 35.6 °F 27.5 °F 32.0 °F 87% 30.36 in 10.0 mi NNW 11.5 mph - N/A   Overcast
1:58 AM 35.6 °F 27.5 °F 32.0 °F 87% 30.40 in 10.0 mi NW 11.5 mph - N/A   Overcast
2:58 AM 34.7 °F 27.5 °F 30.9 °F 86% 30.40 in 10.0 mi NNW 9.2 mph - N/A   Overcast
3:58 AM 34.3 °F 27.0 °F 30.9 °F 87% 30.41 in 10.0 mi NW 9.2 mph - N/A   Overcast
4:58 AM 33.6 °F 26.8 °F 29.8 °F 86% 30.42 in 10.0 mi NW 8.1 mph - N/A   Overcast
5:28 AM 32.0 °F 24.2 °F 30.2 °F 93% 30.42 in 10.0 mi NNW 9.2 mph - N/A   Overcast
5:48 AM 32.0 °F 24.2 °F 30.2 °F 93% 30.43 in 10.0 mi NNW 9.2 mph - N/A   Overcast
5:58 AM 33.6 °F 26.8 °F 29.7 °F 85% 30.45 in 10.0 mi NNW 8.1 mph - N/A   Overcast
6:13 AM 32.0 °F 24.8 °F 30.2 °F 93% 30.44 in 10.0 mi NNW 8.1 mph - N/A   Overcast
6:33 AM 32.0 °F 24.2 °F 28.4 °F 87% 30.44 in 10.0 mi NNW 9.2 mph - N/A   Overcast
6:43 AM 32.0 °F 24.2 °F 30.2 °F 93% 30.45 in 10.0 mi NNW 9.2 mph - N/A   Overcast
6:58 AM 33.4 °F 26.6 °F 28.9 °F 84% 30.47 in 10.0 mi NNW 8.1 mph - N/A   Overcast
7:58 AM 33.8 °F 29.6 °F 29.1 °F 83% 30.49 in 10.0 mi NNW 4.6 mph - N/A   Overcast
8:13 AM 33.8 °F 28.6 °F 30.2 °F 87% 30.48 in 10.0 mi NNE 5.8 mph - N/A   Overcast
8:53 AM 35.6 °F 29.9 °F 28.4 °F 75% 30.48 in 10.0 mi North 6.9 mph - N/A   Scattered Clouds
8:58 AM 34.9 °F 29.9 °F 28.6 °F 78% 30.51 in 10.0 mi North 5.8 mph - N/A   Scattered Clouds
9:58 AM 36.7 °F 32.0 °F 28.4 °F 72% 30.51 in 10.0 mi NNW 5.8 mph - N/A   Partly Cloudy
10:58 AM 39.2 °F 33.0 °F 28.4 °F 65% 30.48 in 10.0 mi ENE 9.2 mph - N/A   Clear
11:58 AM 41.7 °F - 26.4 °F 55% 30.47 in 10.0 mi Variable 1.2 mph - N/A   Clear
12:58 PM 43.3 °F - 26.6 °F 52% 30.44 in 10.0 mi Calm Calm - N/A   Clear
1:58 PM 43.9 °F - 27.3 °F 52% 30.43 in 10.0 mi Calm Calm - N/A   Clear
2:58 PM 43.9 °F - 27.5 °F 53% 30.40 in 10.0 mi Variable 1.2 mph - N/A   Clear
3:58 PM 43.3 °F - 28.2 °F 55% 30.40 in 10.0 mi NE 1.2 mph - N/A   Clear
4:58 PM 40.3 °F - 30.9 °F 69% 30.40 in 10.0 mi Calm Calm - N/A   Clear
5:58 PM 37.0 °F - 31.1 °F 79% 30.40 in 10.0 mi Calm Calm - N/A   Clear
6:58 PM 35.4 °F - 31.8 °F 87% 30.42 in 10.0 mi Calm Calm - N/A   Clear
7:58 PM 33.6 °F - 31.1 °F 90% 30.41 in 10.0 mi Calm Calm - N/A   Clear
8:58 PM 32.4 °F - 30.0 °F 91% 30.41 in 10.0 mi Calm Calm - N/A   Clear
9:58 PM 32.2 °F - 30.7 °F 94% 30.40 in 10.0 mi Calm Calm - N/A   Clear
10:58 PM 32.9 °F - 31.6 °F 95% 30.39 in 10.0 mi NNW 1.2 mph - N/A   Clear
11:58 PM 32.2 °F - 30.9 °F 95% 30.37 in 10.0 mi North 1.2 mph - N/A   Clear